MOMW EDDS-EDFM

Flight info

Callsign MOMW
Flight time N/A
Altitude 6000
Route VESID2H VESID DCT RINEX
Aircraft PA24/L-SDGRY/S

Departure

Time N/A
Airport Stuttgart Airport (EDDS)

Arrival

Time 2026-04-22 19:33
Airport Mannheim-City Airport (EDFM)
Time Latitude Longitude Altitude Speed Heading
2026-04-22 19:21 49.38670 8.76193 4277 ft 137 kts 51°
2026-04-22 19:22 49.39199 8.77237 4276 ft 137 kts 52°
2026-04-22 19:22 49.39783 8.78393 4272 ft 137 kts 52°
2026-04-22 19:22 49.40336 8.79486 4274 ft 137 kts 52°
2026-04-22 19:22 49.40921 8.80644 4274 ft 137 kts 52°
2026-04-22 19:23 49.41498 8.81788 4271 ft 137 kts 52°
2026-04-22 19:23 49.42079 8.82938 4271 ft 132 kts 51°
2026-04-22 19:23 49.42600 8.83971 4266 ft 115 kts 51°
2026-04-22 19:23 49.43073 8.84907 4268 ft 107 kts 51°
2026-04-22 19:24 49.43516 8.85784 4270 ft 104 kts 51°
2026-04-22 19:24 49.43998 8.86733 4281 ft 119 kts 50°
2026-04-22 19:24 49.44733 8.87308 4279 ft 126 kts 359°
2026-04-22 19:24 49.45506 8.86740 4280 ft 128 kts 309°
2026-04-22 19:25 49.45710 8.85439 4281 ft 130 kts 259°
2026-04-22 19:25 49.45177 8.84353 4268 ft 132 kts 209°
2026-04-22 19:25 49.44280 8.84066 4265 ft 133 kts 198°
2026-04-22 19:25 49.43724 8.83031 4268 ft 132 kts 263°
2026-04-22 19:26 49.44085 8.81788 4274 ft 132 kts 316°
2026-04-22 19:26 49.44794 8.80867 4233 ft 136 kts 319°
2026-04-22 19:26 49.45467 8.79849 4141 ft 139 kts 308°
2026-04-22 19:26 49.45925 8.78537 4042 ft 141 kts 285°
2026-04-22 19:27 49.46058 8.77039 3947 ft 142 kts 275°
2026-04-22 19:27 49.46142 8.75515 3849 ft 142 kts 275°
2026-04-22 19:27 49.46221 8.73999 3786 ft 141 kts 274°
2026-04-22 19:27 49.46294 8.72518 3785 ft 137 kts 274°
2026-04-22 19:28 49.46365 8.71039 3628 ft 137 kts 274°
2026-04-22 19:28 49.46429 8.69684 3346 ft 121 kts 274°
2026-04-22 19:28 49.46489 8.68397 2875 ft 123 kts 274°
2026-04-22 19:28 49.46550 8.67090 2385 ft 125 kts 274°
2026-04-22 19:29 49.46665 8.65764 1884 ft 125 kts 279°
2026-04-22 19:29 49.46798 8.64564 1770 ft 100 kts 279°
2026-04-22 19:29 49.46857 8.63640 1746 ft 76 kts 269°
2026-04-22 19:29 49.46849 8.62849 1662 ft 75 kts 269°
2026-04-22 19:30 49.46847 8.62337 1756 ft 71 kts 270°
2026-04-22 19:30 49.46861 8.61193 1706 ft 91 kts 272°
2026-04-22 19:30 49.46889 8.60203 1423 ft 93 kts 273°
2026-04-22 19:30 49.46925 8.59267 1279 ft 79 kts 274°
2026-04-22 19:31 49.46975 8.58462 1172 ft 78 kts 277°
2026-04-22 19:31 49.47030 8.57619 1124 ft 81 kts 275°
2026-04-22 19:31 49.47075 8.56701 958 ft 92 kts 273°
2026-04-22 19:31 49.47115 8.55748 763 ft 80 kts 272°
2026-04-22 19:32 49.47148 8.54948 671 ft 74 kts 272°
2026-04-22 19:32 49.47175 8.54165 587 ft 74 kts 272°
2026-04-22 19:32 49.47202 8.53378 524 ft 74 kts 272°
2026-04-22 19:32 49.47230 8.52583 416 ft 72 kts 273°
2026-04-22 19:33 49.47253 8.51867 318 ft 61 kts 270°
2026-04-22 19:33 49.47270 8.51413 310 ft 11 kts 281°
2026-04-22 19:33 49.47255 8.51417 310 ft 3 kts 141°
2026-04-22 19:33 49.47249 8.51421 310 ft 0 kts 174°
2026-04-22 19:34 49.47236 8.51423 311 ft 2 kts 175°
2026-04-22 19:34 49.47220 8.51446 311 ft 8 kts 97°
2026-04-22 19:35 49.47217 8.51560 310 ft 12 kts 92°
2026-04-22 19:35 49.47214 8.51673 309 ft 2 kts 92°
2026-04-22 19:35 49.47214 8.51687 309 ft 5 kts 93°
2026-04-22 19:35 49.47204 8.51872 311 ft 14 kts 93°
2026-04-22 19:36 49.47201 8.52022 312 ft 15 kts 91°
2026-04-22 19:36 49.47248 8.52147 309 ft 18 kts 16°
2026-04-22 19:36 49.47381 8.52156 314 ft 18 kts
2026-04-22 19:36 49.47491 8.52166 313 ft 17 kts
2026-04-22 19:37 49.47587 8.52159 314 ft 3 kts 291°
2026-04-22 19:37 49.47589 8.52119 313 ft 4 kts 264°
2026-04-22 19:37 49.47600 8.52084 313 ft 5 kts 61°
2026-04-22 19:37 49.47603 8.52051 313 ft 0 kts 265°
2026-04-22 19:39 49.47603 8.52050 313 ft 0 kts 265°
2026-04-22 19:39 49.47603 8.52051 313 ft 0 kts 265°
2026-04-22 19:40 49.47603 8.52050 313 ft 0 kts 265°
2026-04-22 19:42 49.47603 8.52051 313 ft 0 kts 265°
2026-04-22 19:42 49.47603 8.52050 313 ft 0 kts 265°
2026-04-22 19:43 49.47603 8.52051 313 ft 0 kts 265°
2026-04-22 19:44 49.47603 8.52050 313 ft 0 kts 265°
2026-04-22 19:44 49.47603 8.52051 313 ft 0 kts 265°
2026-04-22 19:58 49.47603 8.52049 313 ft 2 kts 247°
2026-04-22 19:58 49.47590 8.52072 313 ft 0 kts 100°